This demonstration page uses our WeatherBlox Daily Observations layout. Learn more.

Left ArrowRight Arrow

31.84235, -102.49876

Hourly Observations for May 17, 2017

Temp ( °F °C ) Dew Point ( °F °C ) Humidity (%) Winds ( mph kmh ) Pressure ( in mb ) Visibility ( mi km ) Precip ( " mm )
12:53 am 00:53 Clear 70 21.1 28 -2.2 21 21 NW 14 22 29.65 1004 10 16 0.00 0.00
1:53 am 01:53 Clear 69 20.6 27 -2.8 21 21 W 10 17 29.66 1004 10 16 0.00 0.00
2:53 am 02:53 Clear 68 20 22 -5.6 17 17 WSW 9 15 29.65 1004 10 16 0.00 0.00
3:53 am 03:53 Clear 66 18.9 19 -7.2 16 16 W 12 19 29.66 1005 10 16 0.00 0.00
4:53 am 04:53 Clear 66 18.9 19 -7.2 16 16 W 21 33 29.66 1004 10 16 0.00 0.00
5:53 am 05:53 Clear 65 18.3 19 -7.2 17 17 W 18 30 29.67 1005 10 16 0.00 0.00
6:53 am 06:53 Sunny 63 17.2 20 -6.7 19 19 W 16 26 29.68 1005 10 16 0.00 0.00
7:53 am 07:53 Sunny 62 16.7 24 -4.4 23 23 WSW 14 22 29.70 1006 10 16 0.00 0.00
8:53 am 08:53 Sunny 68 20 19 -7.2 15 15 W 18 30 29.72 1006 10 16 0.00 0.00
9:53 am 09:53 Sunny 72 22.2 15 -9.4 11 11 W 25 41 29.73 1007 10 16 0.00 0.00
10:53 am 10:53 Sunny 75 23.9 17 -8.3 11 11 WSW 15 24 29.73 1007 10 16 0.00 0.00
11:53 am 11:53 Sunny 77 25 18 -7.8 11 11 SW 12 19 29.72 1006 10 16 0.00 0.00
12:53 pm 12:53 Sunny 81 27.2 12 -11.1 7 7 W 16 26 29.70 1006 10 16 0.00 0.00
1:53 pm 13:53 Sunny 82 27.8 12 -11.1 7 7 WSW 15 24 29.68 1005 10 16 0.00 0.00
2:53 pm 14:53 Sunny 85 29.4 11 -11.7 6 6 W 22 35 29.65 1004 10 16 0.00 0.00
3:53 pm 15:53 Sunny 85 29.4 14 -10 7 7 W 15 24 29.64 1004 10 16 0.00 0.00
4:53 pm 16:53 Sunny 87 30.6 17 -8.3 7 7 WSW 18 30 29.61 1003 10 16 0.00 0.00
5:53 pm 17:53 Sunny 88 31.1 17 -8.3 7 7 WSW 21 33 29.60 1002 10 16 0.00 0.00
6:53 pm 18:53 Sunny 87 30.6 16 -8.9 7 7 WSW 17 28 29.60 1002 10 16 0.00 0.00
7:53 pm 19:53 Sunny 86 30 17 -8.3 8 8 SW 15 24 29.60 1002 10 16 0.00 0.00
8:53 pm 20:53 Clear 81 27.2 20 -6.7 10 10 W 8 13 29.60 1002 10 16 0.00 0.00
9:53 pm 21:53 Clear 79 26.1 21 -6.1 11 11 S 5 7 29.60 1002 10 16 0.00 0.00
10:53 pm 22:53 Clear 77 25 21 -6.1 12 12 S 6 9 29.61 1003 10 16 0.00 0.00
11:53 pm 23:53 Clear 74 23.3 24 -4.4 15 15 S 10 17 29.62 1003 10 16 0.00 0.00

Powered by AerisWeather